www.pogodaiklimat.ru

Погода и климат >> Архив погоды >> Россия >> Свердловская область >> Карпинск


ПОГОДА в Карпинске

  • Прогноз погоды в Карпинске
  • Монитор погоды в Карпинске

АРХИВ ПОГОДЫ в Карпинске

Время (UTC), дата Ветер
(напр.,м/с)
 
Видим.   Явления Облачность Т
(С)
Тd
(С)
f
(%)
Тe
(С)
Тes
(С)
Комфортность P
(гПа)
Po
(гПа)
Тmin
(С)
Tmax
(С)
R
(мм)
R24
(мм)
S
(см)
12 13.06 СЗ 6-11
{13}
20 км 9/6 600 м
[Sc Ac trans]
+9.2 -1.8 46 +6 +7 1010.5 982.3
15 13.06 СЗ 4
{11}
20 км 6/4 600 м
[Sc Ac trans]
+9.0 -1.6 47 +7 +7 1011.3 983.1 +10.2
18 13.06 З 3
{10}
20 км 8/4 600 м
[Sc Ac trans Ci fib]
+7.4 -1.0 55 +5 +5 1011.2 982.8
21 13.06 З 2 10 км 9/4 600 м
[Sc Ac trans Ci sp]
+6.8 -0.8 58 +5 +5 1010.1 981.6
00 14.06 З 2 20 км 9/4 600 м
[Sc Ac trans Ci sp]
+6.2 -0.4 63 +4 +4 1009.4 980.9
03 14.06 СЗ 3 20 км 9/5 300 м
[Cb cap Ac trans Ci fib]
+7.2 -2.2 51 +5 +6 1009.2 980.8 +5.8
06 14.06 СЗ 3 20 км 6/4 300 м
[Cb cap Ci fib]
+8.9 -2.4 45 +7 +13 1009.0 980.7
09 14.06 СЗ 5
{11}
20 км 8/6 600 м
[Cu med, cong Ci fib]
+12.5 -4.2 31 +11 +13 1008.1 980.2
12 14.06 С 3
{10}
20 км 8/6 600 м
[Cu med, cong Ci fib]
+12.7 -3.9 31 +12 +14 1008.2 980.3
15 14.06 СВ 4 20 км 9/8 600 м
[Sc Ac trans Ci fib]
+9.4 -1.2 47 +7 +7 1008.6 980.4 +13.7
18 14.06 штиль 0 20 км 8/4 600 м
[Sc Ac trans Ci fib]
+6.2 -0.9 60 +6 +6 1009.9 981.4
21 14.06 СЗ 1 10 км 8/6 600 м
[Sc Ac trans]
+3.4 +0.3 80 +2 +2 1010.5 981.6
00 15.06 З 1 20 км 6/3 600 м
[Sc Ac trans Ci fib]
+1.3 -0.8 86 -1 -0 1010.2 981.2
03 15.06 З 2 20 км 5/1 600 м
[Sc Ci fib]
+7.1 -2.2 52 +5 +9 1009.5 981.1 +1.0
06 15.06 СЗ 3 20 км 9/4 600 м
[Cu hum Ci fib]
+12.2 -2.6 36 +11 +16 1008.1 980.2
09 15.06 СЗ 3 50 км 9/6 300 м
[Cb cap Ac trans Ci sp]
+13.8 -1.5 35 +13 +16 1006.5 978.7
12 15.06 З 3 50 км 10/8 300 м
[Cb cap Ac trans]
+12.5 +1.3 46 +11 +12 1005.8 977.9
15 15.06 С 2 20 км 9/8 600 м
[Sc Ac trans]
+10.9 +3.3 59 +10 +10 1005.2 977.3 +14.1
18 15.06 штиль 0 20 км {ливн. осадки} 9/4 300 м
[Cb cap Ac trans]
+9.3 +4.2 70 +9 +9 1006.4 975.7
21 15.06 СЗ 2 10 км {ливн. осадки} 9/8 300 м
[Cb cap Ac trans]
+8.3 +4.4 76 +7 +7 1002.8 974.7
00 16.06 СЗ 2 20 км {ливн. осадки} 8/3 300 м
[Cb cap Ac trans Ci fib]
+6.4 +2.5 76 +4 +4 1003.2 974.9
03 16.06 СЗ 2 20 км 8/3 600 м
[Sc Ac trans Ci fib]
+8.0 +2.2 67 +6 +9 1002.8 974.7 +6.3 0.3
06 16.06 СЗ 3 20 км 8/5 300 м
[Cb cap Ac trans Ci fib]
+11.8 -0.1 44 +11 +14 1002.2 974.4
09 16.06 ЮЗ 1 20 км {ливн. осадки} 9/6 300 м
[Cb cap Ac trans Ci sp]
+9.9 +3.3 63 +10 +14 1002.8 974.9
12 16.06 СЗ 4 20 км {ливн. осадки} 9/6 300 м
[Cb cap Ac trans Ci sp]
+10.9 +0.2 48 +9 +10 1002.7 974.9
15 16.06 З 2 20 км {ливн. осадки} 8/5 300 м
[Cb cap Ac trans Ci sp]
+10.0 +2.7 60 +9 +9 1003.8 975.8 +12.7 0.3
18 16.06 З 1 20 км {ливн. осадки} 8/8 600 м
[Sc]
+7.7 +2.5 70 +7 +7 1005.6 977.4
21 16.06 СЗ 3 10 км 1/1 600 м
[Sc]
+5.3 +1.2 75 +2 +2 1005.5 977.0
00 17.06 З 1 20 км 3/1 600 м
[Sc Ci fib]
+4.6 +0.8 76 +3 +4 1005.4 976.8
03 17.06 ЮЗ 1 20 км 9/0
[Ac lent]
+9.3 +2.6 63 +9 +11 1004.5 976.4 +3.3
06 17.06 ЮЗ 2 20 км {ливн. осадки} 9/6 300 м
[Cb cap Ac trans]
+10.5 +3.4 61 +9 +12 1002.7 974.8
09 17.06 ЮЗ 2 20 км слаб. ливневой дождь 9/6 300 м
[Cb cap Ac trans]
+9.7 +6.1 78 +8 +11 1001.7 973.8
12 17.06 З 2 20 км {ливн. осадки} 6/4 300 м
[Cb cap Ci fib]
+12.3 +5.1 61 +12 +16 1001.2 973.5
15 17.06 СЗ 3 20 км {ливн. осадки} 8/5 300 м
[Cb cap Ci fib]
+12.2 +5.7 64 +11 +11 1001.6 973.9 +14.6 0.8
18 17.06 СЗ 2 20 км {ливн. осадки} 8/5 300 м
[Cb cap Ac trans]
+9.2 +2.9 65 +8 +8 1003.2 975.2
21 17.06 СЗ 2 10 км {ливн. осадки} 8/3 600 м
[Sc Ci fib]
+6.4 +1.7 72 +4 +4 1004.7 976.3
00 18.06 СЗ 2 20 км {ливн. осадки} 5/3 600 м
[Sc Ci fib]
+5.9 +1.3 72 +4 +4 1005.5 977.1
03 18.06 З 2 20 км 8/3 600 м
[Sc Ac trans Ci fib]
+9.2 +1.7 59 +8 +10 1006.4 978.3 +4.5
06 18.06 СЗ 4 20 км 6/4 600 м
[Cu med, cong Ci fib]
+13.7 -2.1 33 +13 +17 1005.6 977.9
09 18.06 З 2 20 км 8/6 300 м
[Cb cap Ci fib]
+16.1 +1.0 36 +16 +21 1004.4 977.0
12 18.06 СЗ 4
{11}
20 км 9/5 300 м
[Cb cap Ac trans Ci fib]
+16.2 +3.1 41 +16 +17 1004.2 976.8
15 18.06 СЗ 2 20 км 9/4 600 м
[Sc Ac lent Ci fib]
+17.8 -0.1 30 +18 +19 1003.7 976.5 +18.7
18 18.06 СВ 1
{10}
20 км 9/6 300 м
[Cb cap Ac trans]
+13.8 -1.2 35 +14 +14 1005.2 977.5
21 18.06 ЮЗ 1 10 км в посл. час ливневой дождь 9/9 300 м
[Cb cap]
+12.0 +1.5 49 +12 +12 1005.3 977.5
00 19.06 З 1 20 км {ливн. осадки} 9/9 300 м
[Cb cap]
+10.4 +5.9 74 +10 +10 1005.2 977.2
03 19.06 З 1 20 км 6/4 600 м
[Sc Ac trans]
+14.7 +7.1 60 +15 +18 1004.6 977.1 +10.3
06 19.06 СЗ 3 20 км 5/5 600 м
[Cu med, cong]
+20.0 +4.1 35 +21 +26 комфорт 1003.8 976.8
09 19.06 СЗ 3 20 км 5/5 600 м
[Cu med, cong]
+22.0 +3.0 29 +22 +28 комфорт 1003.4 976.6
12 19.06 З 4
{11}
20 км 6/6 600 м
[Cu med, cong]
+22.7 +2.4 26 +22 +24 комфорт 1003.4 976.8
15 19.06 СЗ 3
{11}
20 км 4/3 600 м
[Cu med, cong Ci fib]
+22.2 +0.7 24 +22 +22 комфорт 1004.4 977.6 +24.3
18 19.06 З 1 20 км 4/3 600 м
[Sc Ci fib]
+15.9 +0.6 35 +17 +17 1006.5 978.9
21 19.06 С 1 10 км 3/1 600 м
[Sc Ac trans]
+10.1 +4.2 67 +10 +10 1007.2 979.1
00 20.06 СЗ 1 20 км 3/0
[Ac lent Ci fib]
+8.6 +4.6 76 +8 +8 1008.2 980.0
03 20.06 З 1 20 км 9/0
[Ac lent Ci fib]
+14.4 +5.5 55 +15 +18 1008.2 980.5 +8.2
06 20.06 З 1 20 км 9/9 300 м
[Cb cap]
+19.4 +6.4 43 +21 +23 комфорт 1007.0 979.9

 

Местоположение метеостанции Карпинск (Свердловская область, Россия): широта 59.75 долгота 60.00 высота над уровнем моря 235 м.

В архиве по умолчанию представлена погода в Карпинске за последнюю неделю. Архивные данные за месяц целиком и за предыдущие месяцы, начиная с января 2011 года, Вы можете получить, выбрав интересующий диапазон дат из раскрывающегося списка и нажав кнопку "Ввод!".


*Определитесь, кто Вы:
робот инопланетянин человек

Внимание! Время в таблицах - всемирное. Для получения местного времени необходимо прибавить поправку, которая равна 5 ч.

Смотрите также архив погоды в соседних городах и на ближайших метеорологических станциях:

Погода в Серове (Свердловская область, Россия) (34 км)
Погода в Кытлыме (Свердловская область, Россия) (52 км)
Погода в Североуральске (Свердловская область, Россия) (53 км)
Погода в Ивделе (Свердловская область, Россия) (106 км)
Погода в Верхотурье (Свердловская область, Россия) (107 км)
Погода в Качканаре (Свердловская область, Россия) (122 км)
Погода в Гарях (Свердловская область, Россия) (136 км)
Погода в Бисере (Пермский край, Россия) (152 км)
Погода в Кушве (Свердловская область, Россия) (160 км)
Погода в Губахе (Пермский край, Россия) (170 км)

Пояснения к столбцам:

Ветер - указаны скорость ветра в м/с - средняя за 10 мин, порывы в срок и между сроками (в фигурных скобках) и направление, откуда дует ветер: С - северный, СВ - северо-восточный, В - восточный, ЮВ - юго-восточный, Ю - южный, ЮЗ - юго-западный, З - западный, СЗ - северо-западный.
Видимость - горизонтальная дальность видимости в метрах или километрах. При видимости от 1 до 10 км при отсутствии осадков обычно наблюдается дымка, при ухудшении видимости до 1 км и менее - туман. В сухую погоду видимость может ухудшаться дымом, пылью или мглою.
Явления - указаны атмосферные явления, наблюдавшиеся в срок или в последний час перед сроком; фигурными скобками обозначены явления, наблюдавшиеся между сроками (за 1-3 часа до срока); квадратными скобками обозначены град или гололедные отложения с указанием их диаметра в мм.
Облачность - указаны через наклонную черту общая и нижняя облачность в баллах и высота нижней границы облаков в метрах; квадратными скобками обозначены формы облаков: Ci - перистые, Cs - перисто-слоистые, Cc - перисто-кучевые, Ac - высококучевые, As - высокослоистые, Sc - слоисто-кучевые, Ns - слоисто-дождевые, Cu - кучевые, Cb - кучево-дождевые. Подробнее классификацию облаков см. в Атласе облаков (PDF).
T - Температура воздуха - температура, измеренная на высоте 2 м над землей.
Td - Температура точки росы - температура, при понижении до которой содержащийся в воздухе водяной пар достигнет насыщения.
f - Относительная влажность воздуха - влажноcть воздуха, измеренная на высоте 2 м над землей.
Te - Эффективная температура - температура, которую ощущает одетый по сезону человек в тени. Характеристика душности погоды. При расчете учитывается влияние влажности воздуха и скорости ветра на теплоощущения человека.
Tes - Эффективная температура на солнце - температура, которую ощущает человек, с поправкой на солнечный нагрев. Характеристика знойности погоды. Зависит от высоты солнца над горизонтом, облачности и скорости ветра. Ночью, в пасмурную погоду, а также при ветре 12 м/с и более поправка равна нулю.
P - Атмосферное давление - приведенное к уровню моря атмосферное давление.
Po - Атмосферное давление - измеренное на уровне метеостанции атмосферное давление.
Tmin - Минимальная температура - минимум температуры воздуха на высоте 2 м над землей.
Tmax - Максимальная температура - максимум температуры воздуха на высоте 2 м над землей.
R - Количество осадков - Количество выпавших осадков за период времени, мм. При наведении курсора мыши на число - период времени, за который выпало указанное количество осадков.
R24 - Количество осадков - Количество выпавших осадков за 24 часа, мм.
S - Снежный покров - Высота снежного покрова, см. При наведении курсора мыши на число - состояние снежного покрова и степень покрытия местности в баллах.